Location: Palomar Mountain Lodge
(33.3110°N, 116.8495°W)
Time: 09:36:05
(UTC-07:00)

Cosmos 1812 Rocket - Pass Details

Date: 14 June 2018
Orbit: 605 x 633 km, 82.5° (Epoch: 16 October)

Event Time Altitude Azimuth Distance (km) Brightness Sun altitude
Rises 21:50:06 0° 353° (N) 2,861 7.9 -19.3°
Reaches altitude 10° 21:52:19 10° 353° (N) 1,955 6.9 -19.6°
Maximum altitude 21:56:38 87° 265° (W) 612 3.4 -20.2°
Enters shadow 21:57:53 46° 177° (S) 812 3.8 -20.4°
